Wind_Speed
2 3 3 3 4 4 5 7 9 10 11 12 13 15 16 17 19 20 21 23 24 24 23 22 20 19 19 17 15 14 14 15 16 17 17 19 20 21 22 23 24 25 26 27 28 28 27 26 27 28 25 24 26 26 26 27 28 27 25 23 23 24 27
1 1 3 3 3 4 6 7 7 8 9 10 11 12 13 13 15 16 17 18 19 21 23 23 22 21 20 19 17 15 14 15 17 18 19 20 21 22 22 23 23 24 25 27 29 29 27 24 26 27 25 24 26 26 26 27 27 28 26 24 23 23 24
1 1 2 3 3 4 5 5 5 5 7 8 9 10 11 11 12 13 14 14 15 16 18 19 20 20 20 20 19 18 16 15 16 17 18 21 22 23 23 23 23 23 24 25 28 30 28 25 24 26 26 26 26 27 27 26 26 27 27 26 25 24 24
2 3 3 3 4 4 5 4 4 4 4 6 7 8 9 10 10 10 11 12 12 14 14 15 16 16 18 19 19 20 19 17 16 16 17 19 21 23 23 23 23 23 24 26 27 29 29 26 24 24 25 26 26 27 27 26 26 26 26 27 26 26 26
3 3 3 3 4 4 5 5 4 3 4 5 5 6 8 9 10 10 10 11 12 13 13 13 13 14 15 16 17 19 19 19 18 16 16 17 19 21 23 24 24 24 26 26 26 26 27 27 25 24 23 23 23 24 25 25 26 26 26 27 27 27 27
3 3 3 3 4 4 5 6 5 4 4 5 5 5 7 9 10 10 9 10 11 13 13 13 13 14 15 15 16 17 18 19 18 17 16 16 17 19 21 23 23 24 25 25 24 24 25 25 26 26 25 23 21 20 20 22 24 26 26 26 26 27 27
3 3 3 4 4 4 5 6 5 5 4 4 4 5 7 9 10 10 9 10 12 13 14 14 14 14 16 16 16 17 18 18 18 18 16 16 16 17 18 19 20 21 22 23 22 24 25 25 25 26 25 25 24 21 19 20 22 25 26 26 26 27 27
3 3 4 5 5 5 6 7 8 7 6 6 6 7 8 9 9 9 10 12 14 15 15 15 15 15 16 17 17 18 18 18 18 18 18 16 15 17 17 16 17 17 17 18 19 21 24 25 25 23 23 27 28 25 21 20 21 24 26 27 27 27 27
4 4 5 5 5 6 7 8 9 10 10 9 9 10 11 11 11 11 11 14 16 17 17 16 17 17 17 18 18 19 19 19 18 18 18 17 15 16 16 16 15 14 14 15 16 17 19 22 22 20 23 27 29 27 24 22 22 24 26 27 27 27 28
4 4 5 5 5 6 7 8 9 9 10 11 11 12 13 15 15 14 14 15 17 17 17 18 18 19 19 19 19 19 19 19 18 18 18 18 17 15 15 15 15 13 12 13 13 12 15 18 18 18 21 24 24 24 24 23 24 25 27 28 28 29 29
4 4 5 5 4 4 6 7 8 9 10 11 12 13 14 15 16 16 17 18 19 18 18 17 18 20 21 21 20 19 18 18 18 19 19 18 17 16 15 14 15 14 12 12 12 12 13 15 17 18 20 21 21 21 22 22 23 25 26 28 30 30 31
4 5 4 5 4 4 4 6 7 8 8 10 12 12 13 15 15 17 19 20 20 20 18 18 19 21 22 22 21 19 17 17 18 19 19 19 18 17 16 15 14 13 12 11 11 11 12 13 15 17 19 19 19 20 20 20 21 23 25 26 28 29 30
4 4 3 4 4 4 4 4 5 6 8 10 11 12 13 14 16 18 19 20 20 20 20 20 20 21 22 22 21 19 16 16 18 18 19 19 18 18 17 15 14 13 11 12 13 12 12 14 16 17 18 18 18 18 19 20 21 22 23 24 26 27 29
3 4 4 5 5 6 6 6 6 8 11 12 13 14 15 15 16 18 19 20 20 20 21 22 22 23 23 22 21 20 18 17 18 17 18 18 18 18 17 16 15 13 12 14 16 14 13 14 15 16 16 17 17 17 18 19 21 22 23 24 24 26 27
4 5 6 6 6 7 7 7 7 10 13 14 14 15 15 15 17 19 20 20 21 21 22 22 23 24 23 22 22 22 21 21 19 17 17 17 17 18 17 17 16 14 12 13 14 13 13 14 14 14 14 15 16 16 17 18 20 22 22 23 24 24 25
5 5 5 6 6 6 6 6 8 11 14 15 16 16 16 16 18 20 21 21 21 23 23 22 23 23 23 23 23 23 23 22 20 17 17 17 18 18 17 17 17 16 14 14 14 14 14 14 15 15 15 15 15 16 16 17 20 21 21 21 22 23 24
4 5 5 5 5 5 5 6 8 11 13 14 16 17 18 18 19 21 22 21 22 23 23 23 23 23 23 23 23 24 22 20 18 18 18 18 18 18 18 18 17 16 15 14 14 15 14 14 14 15 16 16 17 18 18 19 20 20 19 19 20 22 23
4 5 5 5 5 5 5 5 7 9 11 13 15 17 19 20 21 22 23 22 23 24 24 24 23 22 22 23 23 23 21 18 18 18 19 19 19 20 19 19 18 15 14 14 15 15 15 14 14 14 15 16 18 19 20 21 21 20 20 19 19 20 21
5 5 5 4 5 5 5 6 7 8 11 13 16 18 20 20 21 23 23 22 23 24 25 25 23 22 21 21 22 22 19 17 18 19 19 19 20 21 20 20 20 17 15 15 15 15 15 15 15 15 15 16 17 19 20 20 21 21 21 21 20 19 20
5 5 5 5 5 5 7 9 9 10 12 14 16 18 20 20 21 22 23 22 23 24 24 23 22 22 21 20 20 20 19 18 18 19 20 20 20 21 21 20 20 19 18 16 15 15 15 15 16 16 15 16 17 17 19 19 19 19 19 19 19 20 20
4 4 4 4 5 6 9 10 10 11 13 15 17 19 20 21 21 22 23 23 23 24 23 23 22 22 21 20 20 20 19 19 20 20 21 21 20 21 21 21 20 20 19 17 15 15 15 15 16 16 15 15 16 17 18 18 17 16 16 16 17 18 18
4 4 5 6 6 8 10 11 10 10 13 15 17 19 20 21 22 23 24 23 23 23 23 22 22 22 21 21 21 21 20 20 21 21 21 21 21 21 21 21 20 20 18 16 15 15 16 16 15 16 15 14 15 16 17 17 17 16 15 15 15 15 17
5 6 8 9 9 10 11 11 10 11 14 15 17 18 19 21 22 22 23 23 23 23 23 22 22 22 21 22 22 23 22 21 21 21 22 22 22 22 22 21 20 20 18 16 15 15 15 15 15 15 14 14 15 16 16 16 16 16 16 16 15 15 17
8 9 10 10 10 10 10 10 11 13 14 16 17 19 19 21 22 22 22 23 22 23 23 22 22 22 22 23 24 24 23 21 22 22 22 22 22 22 22 21 20 20 18 15 14 14 14 14 15 15 14 13 14 14 14 13 13 13 15 16 15 15 15
8 8 8 8 8 9 11 12 13 15 16 17 19 20 20 21 21 22 22 22 22 22 22 22 23 23 24 24 24 24 23 22 22 22 22 22 23 23 22 21 21 20 18 15 14 14 14 13 14 15 15 13 13 12 13 13 13 13 13 13 13 13 14
7 8 8 7 8 10 12 13 14 16 17 18 19 20 20 20 21 21 21 21 22 21 21 23 24 25 25 25 24 24 23 21 21 22 22 22 23 23 22 21 20 19 17 15 15 15 14 13 14 16 15 13 13 14 14 14 13 13 13 12 11 12 13
7 7 7 8 10 13 15 15 15 15 16 17 19 19 20 20 20 20 21 21 20 21 22 24 26 26 26 25 25 24 22 21 21 21 22 22 22 23 22 20 19 18 16 15 15 15 14 13 14 16 16 15 14 16 17 15 14 13 13 12 12 12 12
7 7 7 9 12 15 16 17 17 16 16 18 19 19 19 19 18 19 20 20 20 22 24 25 25 26 26 26 25 24 22 21 21 21 22 22 21 22 22 19 17 16 15 14 15 15 14 14 14 16 17 16 15 16 17 17 16 15 14 14 14 14 14
7 8 8 10 14 16 16 17 17 17 17 18 19 19 19 19 18 18 18 20 22 24 25 25 25 25 25 25 25 24 22 22 22 22 23 22 20 21 21 19 17 16 15 14 13 13 14 13 14 15 17 17 17 16 17 17 18 18 17 16 16 16 16
8 8 9 12 15 17 16 17 17 18 18 18 19 19 19 19 19 18 18 21 24 25 25 25 25 25 24 24 24 24 23 23 22 23 23 21 19 19 19 19 19 17 16 14 12 12 14 14 14 15 16 17 17 16 17 18 18 19 18 17 17 17 17
8 8 10 13 16 17 17 17 17 18 19 19 19 19 19 19 18 18 20 22 24 24 25 25 26 25 24 24 24 23 23 23 23 23 22 19 17 17 18 19 19 17 15 14 13 13 14 14 14 15 14 14 14 16 18 18 17 17 17 16 17 17 17
7 7 10 14 16 17 17 17 17 17 18 19 20 19 19 19 18 19 21 23 24 24 25 25 26 26 25 24 25 24 23 23 23 22 21 19 17 15 16 17 18 17 16 14 13 14 14 14 14 15 14 13 14 16 18 18 16 16 17 16 16 15 13
7 9 11 14 16 17 17 16 16 16 17 18 20 20 19 20 20 20 21 23 23 24 25 26 25 24 23 23 24 24 22 21 21 21 20 19 16 14 14 16 17 16 16 15 14 14 15 14 13 14 14 14 14 14 15 16 16 16 17 16 15 13 11
8 10 13 14 15 16 16 15 15 16 16 18 20 20 20 20 20 21 22 23 23 23 24 25 24 23 21 21 22 22 21 20 19 20 20 19 16 14 15 17 16 14 14 14 14 15 17 16 14 13 14 15 14 14 14 14 15 16 17 17 17 14 11
10 12 14 15 16 15 15 15 16 16 17 18 19 20 20 21 21 22 22 23 23 23 23 24 24 24 22 21 20 21 22 21 19 20 20 19 17 16 16 16 15 13 14 15 14 13 16 17 17 15 14 14 14 13 13 13 15 16 15 14 15 14 10
11 13 15 16 16 16 15 16 16 16 17 19 20 20 20 21 22 22 22 22 23 24 24 24 25 24 22 20 20 20 21 21 20 20 21 19 18 18 18 17 15 14 14 16 14 11 12 15 17 17 16 17 17 15 14 14 16 16 14 11 10 10 8
11 13 15 16 15 15 16 16 16 17 18 19 20 20 20 21 22 23 23 22 23 24 24 24 25 25 22 21 22 22 22 21 20 20 20 20 19 18 18 18 18 17 16 15 15 12 11 13 15 16 16 17 18 18 17 16 16 16 15 12 8 7 6
11 12 15 15 14 14 16 17 17 18 18 19 19 19 19 21 22 22 23 23 25 25 24 24 24 24 22 22 24 24 22 21 20 19 18 19 18 17 16 16 17 18 18 17 16 15 14 13 14 15 15 15 16 17 17 17 16 16 15 13 9 7 6
Wind_Direction
48 356 342 340 336 331 335 350 6 16 23 27 26 25 21 15 11 6 2 359 357 355 359 5 9 9 3 356 347 334 321 311 298 289 284 277 273 271 267 264 259 256 252 251 253 255 256 255 243 234 235 242 247 249 248 247 246 246 247 245 237 230 228
79 337 312 314 320 317 324 340 359 11 20 26 28 29 29 24 18 14 9 5 360 355 353 356 1 5 3 359 356 350 338 325 312 300 291 283 279 274 270 268 263 259 256 252 252 252 254 252 242 236 237 241 245 247 247 246 245 244 246 245 240 233 229
125 271 270 275 278 280 297 319 339 356 9 16 20 22 22 21 19 17 14 11 7 1 356 354 353 355 357 355 354 352 344 333 321 308 296 287 281 277 273 269 264 263 261 258 254 250 248 247 240 237 239 241 242 245 246 246 245 244 245 245 243 238 234
207 234 243 260 268 267 271 279 300 325 349 0 7 9 9 10 10 11 11 7 5 3 1 358 353 350 351 350 348 347 345 338 329 316 303 294 288 282 275 269 266 264 262 260 258 253 246 241 236 235 239 241 241 243 244 245 244 243 243 243 242 241 239
213 227 241 264 269 267 259 253 266 293 322 340 349 354 357 359 359 360 2 359 357 356 356 357 355 352 351 347 343 342 342 340 334 322 307 298 293 286 276 271 269 268 266 262 259 256 249 240 235 234 237 239 237 238 241 244 243 242 241 240 240 241 241
212 230 235 252 259 256 251 249 261 280 298 319 336 348 352 354 354 356 360 357 352 348 347 349 349 349 349 347 343 339 338 339 337 329 313 298 293 288 279 275 272 269 269 266 261 256 249 241 237 236 239 242 239 235 237 241 242 241 239 238 238 239 240
239 268 270 267 262 255 261 271 285 291 296 312 334 353 359 359 358 359 1 356 349 343 343 345 344 344 343 342 341 337 337 337 336 334 325 304 291 289 285 282 279 272 267 266 264 259 251 246 241 238 243 249 246 240 237 239 241 241 238 236 236 238 240
243 260 266 268 269 268 279 296 310 317 322 329 342 355 0 3 1 355 352 351 347 344 344 344 343 342 339 338 337 335 336 337 336 336 332 319 299 291 289 285 284 281 272 265 259 255 252 250 245 239 243 248 246 242 239 239 243 242 238 236 235 237 239
256 254 259 266 271 271 281 297 309 320 330 337 346 353 353 354 352 347 346 348 347 344 345 345 343 342 341 339 338 336 334 336 338 337 335 330 317 302 296 293 289 286 281 271 258 244 242 247 246 239 239 244 245 245 244 244 246 245 241 239 238 238 239
258 260 264 267 268 274 286 297 304 316 327 331 338 345 347 347 346 346 345 345 345 345 344 345 344 345 344 342 341 338 335 336 339 339 337 334 327 316 310 307 302 293 284 278 270 250 241 245 246 240 238 243 247 249 250 249 249 249 246 243 242 242 241
252 253 258 266 279 292 295 296 300 310 321 327 332 337 340 343 344 345 344 342 342 343 342 342 343 342 341 339 339 337 336 337 338 339 339 336 330 322 316 313 307 299 287 282 280 267 252 247 245 241 241 244 248 251 254 254 252 251 249 247 246 245 244
251 251 257 274 288 284 277 277 282 293 313 328 333 333 334 339 342 343 342 341 341 341 339 340 340 338 336 335 334 333 335 337 336 337 338 338 334 327 319 313 307 301 295 291 288 279 267 258 251 247 245 246 249 251 255 257 256 254 252 252 251 250 248
255 262 277 292 294 294 301 297 288 301 320 328 331 332 336 339 342 342 339 338 342 342 340 340 338 336 335 334 333 332 332 335 335 335 336 337 337 332 325 317 309 306 296 275 264 258 256 254 252 251 248 245 245 247 252 256 259 258 256 255 255 255 254
289 316 329 330 328 330 335 331 321 324 326 327 332 338 343 346 344 341 336 335 340 341 340 339 336 334 335 336 336 335 334 333 333 333 334 335 335 334 332 326 317 308 287 263 255 249 245 245 247 249 248 244 241 241 246 250 254 256 257 255 255 256 256
337 338 335 332 328 325 327 324 316 317 321 327 335 339 343 346 343 339 335 335 337 338 339 338 334 332 333 334 335 335 333 332 331 331 331 332 332 333 332 331 327 317 295 273 265 260 254 251 251 249 248 246 242 238 237 241 247 251 254 255 254 254 255
340 325 318 315 311 310 312 310 308 315 324 331 336 338 337 337 337 335 334 335 337 337 337 336 333 332 331 331 333 333 331 331 331 331 330 328 327 329 330 330 330 325 310 289 274 268 265 260 253 247 244 243 243 241 236 236 243 248 251 253 253 253 253
318 307 303 301 301 301 302 311 318 322 327 330 333 334 333 330 331 332 332 335 336 336 336 334 332 332 330 329 331 331 330 331 333 333 330 325 323 324 327 328 326 321 313 302 289 280 276 269 259 249 243 240 240 242 241 239 242 244 246 247 248 249 251
289 287 290 294 297 298 298 309 318 317 322 327 328 328 329 329 329 330 331 334 337 336 335 332 330 330 328 327 329 329 330 332 334 334 329 324 321 320 323 325 324 319 311 304 298 290 283 277 271 261 252 246 243 243 244 245 244 243 243 243 243 243 245
265 268 274 277 277 283 287 293 303 312 320 327 326 326 328 329 328 329 331 333 335 335 332 329 328 327 325 326 327 328 330 331 330 331 328 323 319 319 321 322 322 321 316 309 302 293 286 281 279 273 262 254 250 249 250 250 248 245 243 242 242 242 242
247 256 267 273 271 275 283 289 302 315 322 327 328 329 331 332 333 333 333 333 333 332 331 328 327 325 324 325 326 328 330 330 327 325 325 323 319 318 319 320 320 320 321 317 307 295 288 284 282 278 268 259 256 257 259 261 259 253 247 245 244 244 245
263 267 272 277 275 278 287 294 302 314 323 329 331 333 335 337 338 337 334 333 331 330 330 328 326 324 324 325 326 327 326 326 324 321 319 321 321 318 317 318 318 320 322 322 313 301 295 289 281 277 274 267 259 258 260 263 265 261 254 250 249 248 247
269 263 258 265 269 279 297 307 308 315 325 330 333 337 340 341 340 337 333 332 329 328 329 328 324 324 325 325 325 325 322 321 321 318 316 317 319 318 316 316 317 319 320 319 314 306 302 297 282 270 271 270 262 258 258 259 261 261 259 256 254 252 249
247 249 259 276 287 296 311 320 321 326 330 330 334 340 342 342 341 336 332 330 328 328 327 326 323 323 323 322 322 322 319 318 317 316 315 315 315 314 315 315 315 318 318 316 313 306 301 300 290 273 267 268 262 259 260 260 258 256 255 254 251 250 249
250 256 271 290 305 314 324 330 330 330 330 331 337 343 345 344 341 336 330 328 327 326 324 322 322 322 320 318 320 320 318 315 315 314 314 314 313 312 314 313 314 316 316 312 308 301 293 291 288 276 269 267 263 260 260 263 262 257 253 250 245 244 245
256 275 292 303 314 321 326 330 328 328 331 335 339 343 345 344 341 336 329 326 325 323 320 319 320 320 318 316 318 319 317 314 313 314 313 313 313 313 313 312 313 315 315 310 306 301 291 283 281 277 270 266 266 264 260 262 266 263 257 251 245 241 238
272 295 307 315 326 330 327 325 325 326 331 335 338 341 343 342 339 334 328 324 322 319 317 318 319 319 318 316 316 317 316 315 313 314 314 314 315 315 314 312 311 313 313 309 307 304 294 285 284 283 276 269 268 268 264 260 260 260 256 249 241 236 234
284 297 310 321 334 335 328 324 323 323 327 334 338 341 342 339 335 330 326 323 319 317 318 320 320 319 318 316 315 316 316 316 316 316 316 316 315 315 314 312 312 313 313 310 308 305 296 289 288 284 277 272 270 269 267 263 260 256 251 244 236 230 232
305 317 325 331 335 333 327 321 319 318 324 334 339 340 341 338 330 325 324 320 317 319 322 323 321 320 318 316 316 317 318 318 319 319 318 317 316 315 314 314 314 315 315 312 308 304 295 289 287 283 276 271 271 273 270 264 257 251 245 239 235 229 229
317 322 327 330 329 327 324 318 314 314 321 330 336 340 342 338 328 323 321 318 320 324 325 324 324 322 318 316 315 316 318 319 320 321 321 320 318 316 315 315 315 315 315 312 308 304 298 291 287 285 278 270 269 275 276 267 255 246 240 235 233 232 232
323 321 324 324 321 322 322 317 313 316 321 327 334 340 342 338 328 321 318 319 324 328 327 325 326 323 318 315 314 315 318 319 319 321 322 323 322 319 318 318 316 313 312 310 307 303 299 294 289 285 276 265 263 273 279 272 256 244 238 236 236 236 236
319 317 318 317 317 320 320 316 315 317 320 327 334 337 339 338 330 320 319 324 328 329 327 326 326 323 319 316 314 315 317 317 318 322 324 326 325 321 319 319 316 311 308 307 304 300 298 294 290 283 272 264 267 277 282 277 263 251 245 242 240 239 237
320 321 318 316 317 319 319 318 318 317 318 325 332 335 336 336 330 322 323 327 330 330 329 328 326 322 319 317 315 316 317 317 318 322 325 325 322 317 318 318 315 309 305 303 301 298 295 291 289 285 276 269 271 275 279 280 273 261 253 247 243 240 235
314 316 314 312 316 318 318 317 317 318 319 323 329 333 333 332 331 329 327 329 332 333 331 329 325 321 319 318 317 318 320 319 318 320 321 319 317 315 318 320 316 309 304 301 300 300 297 289 285 286 282 276 273 273 278 284 280 267 257 251 244 236 226
301 307 308 311 316 319 318 316 316 318 320 321 327 332 332 330 331 331 330 332 335 334 331 328 324 321 319 319 318 319 321 321 319 319 319 317 314 313 315 319 319 310 302 301 299 298 297 291 285 285 285 281 280 280 280 282 278 271 265 258 247 234 222
300 304 306 311 316 318 318 318 318 318 320 323 328 331 331 331 331 330 331 334 336 336 332 327 323 322 321 321 320 318 318 319 319 320 319 316 313 312 314 318 318 309 303 306 305 296 292 291 288 287 286 283 283 285 284 280 279 282 284 272 251 237 225
302 305 310 315 317 319 322 324 323 322 323 326 330 331 331 331 330 329 332 335 336 336 334 329 324 322 323 326 324 319 317 318 318 319 319 316 314 315 317 320 321 317 314 319 323 314 299 295 293 289 285 283 282 282 281 279 278 283 290 283 251 233 226
304 306 312 315 315 319 324 327 328 326 325 327 330 330 330 329 328 329 331 334 336 336 334 330 325 322 323 327 325 321 320 319 316 317 318 318 316 316 317 319 322 324 324 326 328 326 315 304 298 291 285 284 285 282 277 274 272 272 276 276 259 234 222
308 308 312 315 318 321 323 326 328 327 325 327 329 329 328 327 327 329 331 333 335 336 335 332 326 323 323 324 322 321 322 321 318 317 318 318 317 317 317 316 318 322 325 324 323 321 318 311 302 291 284 283 286 284 275 268 264 261 263 264 259 246 225
Height
822 821 820 819 818 817 815 814 812 811 810 809 808 806 804 802 799 797 795 793 791 790 790 791 791 791 791 791 791 791 791 791 791 791 790 790 790 789 789 788 788 788 788 788 788 788 789 790 791 792 793 794 795 797 799 800 802 803 805 806 806 807 808
822 822 821 820 819 818 816 814 813 812 811 810 809 808 807 805 803 801 799 797 795 792 790 789 789 789 789 789 789 789 789 789 789 789 788 788 788 788 787 787 786 786 786 786 785 786 787 788 789 789 790 791 792 794 795 796 798 800 802 803 804 805 806
823 823 821 821 820 818 817 815 814 813 812 811 809 808 807 806 805 804 802 801 799 797 795 793 791 790 789 788 788 788 788 788 787 787 786 786 785 785 785 785 784 784 783 783 783 784 784 785 786 787 787 788 790 791 792 793 794 796 798 800 802 803 804
823 822 821 821 820 818 817 816 815 814 812 811 810 809 808 807 806 805 804 803 801 800 799 797 795 794 792 790 788 787 786 786 786 785 784 783 783 783 783 782 782 781 780 780 780 781 782 783 783 784 785 786 787 788 789 790 791 793 794 796 798 800 801
822 822 821 821 819 818 817 816 815 814 813 812 811 810 808 807 806 805 804 803 802 801 800 799 798 796 795 793 791 789 787 786 785 783 783 781 781 780 780 780 779 778 777 777 778 779 780 782 781 782 783 783 784 785 787 788 788 790 791 792 794 796 798
821 821 821 820 819 818 816 815 815 814 813 812 811 810 809 808 807 805 804 803 802 801 800 798 798 796 795 794 792 790 788 786 785 783 781 780 779 778 777 777 776 776 774 774 776 777 778 779 779 781 783 783 783 783 784 785 786 787 789 789 791 792 794
820 820 819 819 817 816 815 814 814 813 813 812 811 811 809 808 807 805 804 803 802 800 799 798 797 795 794 793 792 790 788 787 785 782 781 779 778 777 775 774 774 773 773 773 774 775 776 777 777 779 782 784 784 782 781 783 784 785 787 787 788 789 791
819 819 819 818 816 815 814 813 812 812 811 811 810 810 809 808 807 805 804 803 801 800 798 797 796 794 793 792 790 789 787 786 784 782 780 778 776 775 774 773 772 772 772 772 772 773 774 775 775 776 779 782 783 782 780 780 782 784 785 785 786 787 788
819 819 818 817 815 814 813 812 811 811 810 810 809 808 807 806 805 804 803 802 800 799 797 796 795 793 792 790 789 787 786 784 782 780 778 776 774 773 772 771 770 770 769 769 770 771 772 772 772 773 776 778 780 780 778 778 780 782 783 783 784 784 785
818 818 817 816 815 813 812 811 811 810 809 809 808 807 806 805 804 803 802 801 799 798 796 794 793 791 790 789 787 785 784 782 781 779 777 775 773 771 770 769 768 768 767 767 767 769 770 770 770 771 773 775 776 776 776 776 778 779 780 781 781 782 782
818 818 817 815 814 813 812 811 811 810 810 809 807 807 805 804 803 802 800 799 798 796 795 793 792 790 788 787 785 783 782 780 779 777 775 773 771 769 768 767 766 766 766 766 766 767 767 768 769 769 770 771 772 772 773 774 775 776 777 778 779 779 780
817 816 815 814 813 812 812 811 811 810 810 809 807 806 805 804 802 801 800 798 797 795 794 792 791 789 787 785 783 782 780 779 777 775 774 772 770 768 767 765 765 764 765 765 765 765 766 767 768 768 768 768 769 769 770 771 772 773 773 775 776 777 778
815 814 812 812 812 811 811 811 810 810 809 808 807 805 805 803 802 801 799 797 796 794 793 791 790 788 786 784 782 780 779 777 776 774 772 770 768 767 765 764 763 763 764 763 761 761 762 764 765 766 766 765 766 766 767 768 769 769 770 771 772 774 775
814 813 811 811 811 810 810 809 808 808 807 806 806 805 804 803 801 800 799 797 795 794 792 790 788 787 785 783 781 779 778 776 775 773 771 769 767 766 764 763 762 761 761 759 758 758 758 759 761 762 762 762 762 762 763 764 765 765 766 767 769 770 772
813 813 812 812 812 811 810 809 808 807 805 805 804 803 802 802 800 799 798 796 794 793 791 789 787 785 784 782 780 778 777 775 773 772 770 768 766 764 763 762 761 760 758 757 757 757 757 757 757 758 758 759 759 759 759 760 760 761 762 763 765 766 768
814 814 814 814 814 812 811 810 808 807 805 804 803 802 801 800 799 798 796 795 793 791 790 788 786 784 782 780 779 777 775 774 772 770 769 767 765 763 762 760 759 758 757 756 755 755 755 754 754 754 754 755 755 755 755 755 756 757 758 760 761 763 765
815 815 815 814 814 812 811 810 808 807 805 804 803 801 800 799 797 796 795 793 792 790 789 787 785 783 781 779 777 775 774 772 770 769 767 765 764 762 760 759 758 757 755 754 753 753 752 752 751 751 751 751 752 752 752 752 752 753 754 756 757 759 761
815 815 814 813 813 811 811 809 808 807 805 803 802 801 799 798 796 795 793 792 791 789 787 785 783 782 780 777 776 774 772 770 769 767 766 764 762 761 759 758 757 755 754 753 752 751 751 750 750 749 749 749 749 749 749 749 750 750 751 752 754 756 757
815 814 813 812 812 810 809 808 807 806 804 803 802 800 799 797 796 794 792 791 789 787 786 784 781 780 778 776 774 772 770 769 767 765 764 762 761 759 758 757 755 754 753 752 751 750 749 748 748 747 747 747 747 747 747 747 748 748 749 750 751 753 754
813 813 812 811 810 809 808 807 805 805 804 802 801 799 798 797 795 793 791 789 788 786 784 782 780 778 776 774 772 771 769 767 766 764 762 760 759 757 756 755 754 753 752 751 750 749 747 747 746 746 745 745 745 745 745 745 746 746 747 747 748 750 751
812 812 811 810 809 807 806 805 804 804 803 801 800 798 797 795 793 792 790 788 786 784 782 781 778 776 775 773 771 769 767 766 764 762 760 759 757 756 754 753 752 751 750 749 748 747 746 745 744 744 743 743 743 743 743 743 743 744 744 745 746 747 748
811 811 810 808 807 806 805 804 804 803 802 800 799 797 795 794 792 790 788 786 784 783 781 779 777 775 773 771 770 768 766 764 762 760 759 757 756 754 752 751 750 749 748 747 746 746 745 743 743 742 742 741 741 740 740 740 741 741 742 742 743 744 745
808 809 808 806 806 805 804 803 803 802 801 799 798 796 795 793 791 789 787 785 783 781 779 777 776 774 772 770 768 766 764 762 761 759 757 755 754 752 751 749 748 747 746 745 744 743 743 742 741 740 740 740 739 738 738 738 738 739 739 740 741 741 742
806 807 806 805 805 804 803 803 801 801 800 798 797 795 793 792 790 788 786 783 782 780 778 776 774 772 771 769 767 765 763 761 759 757 755 754 752 751 749 747 746 745 744 743 742 741 741 740 739 738 738 738 737 736 736 735 736 736 737 737 738 738 739
805 805 805 804 804 803 802 801 800 799 798 796 795 794 792 790 788 786 785 783 781 779 777 775 773 771 769 767 765 763 761 759 757 756 754 752 751 749 748 746 744 743 742 741 740 739 738 738 737 737 736 736 735 735 734 734 734 734 734 734 735 735 735
805 805 804 803 803 802 801 800 799 798 797 795 794 792 790 789 787 785 784 782 780 778 776 774 771 769 767 765 763 761 759 757 756 754 752 751 749 747 746 744 743 741 740 739 738 737 736 736 735 734 734 734 734 733 733 732 732 732 732 731 732 732 733
804 804 803 802 801 800 799 799 798 797 796 794 793 791 790 788 786 784 783 781 779 777 774 772 770 767 765 763 760 759 757 755 754 752 751 749 747 745 744 743 741 740 738 737 736 735 734 733 733 732 732 732 732 731 731 730 730 729 729 729 729 729 730
803 802 802 801 800 799 798 797 796 795 794 793 792 790 789 787 785 784 782 780 778 775 773 770 768 765 763 761 758 756 755 753 752 751 749 747 746 744 742 741 740 738 737 736 734 733 732 731 730 730 729 729 729 729 728 728 727 727 726 726 727 727 727
801 801 800 799 799 798 797 796 795 794 793 792 791 789 788 786 784 782 781 778 776 774 771 769 766 764 762 759 757 755 753 751 750 748 747 745 744 742 740 739 738 737 735 734 733 731 730 729 728 728 727 726 727 726 726 725 724 724 724 724 724 724 724
801 800 800 799 798 797 796 795 794 792 791 790 789 788 786 785 783 781 779 777 774 772 770 767 765 762 760 757 755 753 751 749 748 746 745 743 742 741 739 737 736 735 734 733 731 730 729 727 726 726 725 724 724 723 723 723 722 722 721 722 722 722 722
800 800 799 798 797 796 795 794 792 791 790 788 787 787 785 784 782 780 777 775 773 771 768 766 763 761 759 756 754 752 749 747 746 744 743 741 740 739 737 736 735 733 732 731 729 728 727 726 725 724 723 722 721 721 721 721 720 720 720 720 721 720 720
800 799 798 798 796 795 794 793 791 790 788 787 786 785 783 782 781 779 776 774 771 769 767 764 762 759 757 755 752 750 748 746 743 742 741 739 738 737 736 735 733 732 730 729 728 726 725 724 723 722 721 720 720 720 720 719 719 719 719 719 719 719 718
799 798 798 797 795 794 793 791 790 789 787 786 785 783 782 781 779 777 775 773 770 768 766 763 760 758 755 753 751 749 746 744 742 740 739 737 736 735 734 733 731 730 729 728 726 725 724 722 721 720 719 719 718 718 718 718 718 718 718 718 718 718 717
798 797 797 795 794 793 792 790 789 788 786 785 783 782 781 779 777 776 774 771 769 767 764 761 759 756 754 752 750 748 745 743 741 739 737 736 734 733 732 730 729 728 727 726 725 724 722 721 720 718 718 717 717 717 717 716 716 716 716 716 717 717 716
797 796 795 794 793 792 790 789 788 786 785 784 782 781 779 777 776 774 772 770 768 766 763 760 758 755 753 751 748 746 744 742 740 738 736 734 733 731 730 728 727 726 725 724 723 722 720 719 718 717 716 715 715 715 715 714 714 714 715 715 715 716 715
796 795 793 793 792 790 789 788 787 785 784 782 781 779 778 776 774 772 770 769 767 764 762 759 756 753 751 749 747 745 742 740 738 736 735 733 731 729 727 726 725 724 723 721 720 719 719 718 716 715 714 713 712 713 713 712 712 713 713 713 713 714 714
795 794 792 792 790 789 788 787 785 784 783 781 780 778 777 775 773 771 769 767 765 763 761 758 755 752 750 748 746 743 741 739 736 734 733 731 730 728 726 724 722 721 720 719 718 717 716 715 714 713 712 710 710 710 710 710 710 711 711 711 712 713 713
794 793 792 790 789 788 787 785 784 783 781 780 779 777 775 774 772 770 768 766 764 762 759 757 755 752 749 747 744 741 739 737 735 733 731 729 728 726 725 723 720 718 717 717 716 715 713 712 712 711 709 708 707 706 707 707 708 708 709 709 710 711 711